Temperature
16 16 15 15 15 15 15 15 15 15 15 15 14 14 14 14 14 14 14 15 15 14 15 15 15 15 15 15 15 15 15 15 15 15 15 15 15 15 15 15 15 15 15
16 15 15 15 15 15 15 15 15 15 15 14 14 14 14 14 14 14 14 14 14 14 14 14 14 14 15 15 15 15 15 15 14 14 14 15 15 15 15 15 15 15 15
15 15 15 15 15 15 15 15 15 15 14 14 14 14 14 14 14 14 14 14 14 14 14 14 14 14 14 14 14 14 14 14 14 14 14 14 14 14 14 14 15 15 15
15 15 15 15 15 15 15 15 14 14 14 14 14 14 14 14 14 14 14 14 14 14 14 14 14 14 14 14 14 14 14 14 14 14 14 14 14 14 14 14 14 14 14
15 15 15 15 15 14 14 14 14 14 14 14 14 14 14 13 13 13 13 13 13 13 13 14 14 14 14 14 14 14 14 14 14 14 14 14 14 14 14 14 14 14 14
15 15 15 15 14 14 14 14 14 14 14 14 14 14 13 13 13 13 13 13 13 13 13 13 13 13 13 13 13 13 13 13 13 13 13 13 13 13 13 14 14 14 14
15 15 15 14 14 14 14 14 14 14 14 14 14 14 14 13 13 13 13 13 13 13 13 13 13 13 13 13 13 13 13 13 13 13 13 13 13 13 13 13 13 13 13
15 14 14 14 14 14 14 14 14 13 13 13 13 14 14 14 13 13 13 12 12 12 12 12 12 13 13 12 13 13 13 13 13 13 13 13 13 13 13 13 13 13 13
15 14 14 14 14 14 14 14 13 13 13 13 13 13 14 14 13 13 13 12 12 12 12 12 12 12 12 12 12 13 13 13 13 13 13 13 13 12 13 13 13 13 13
14 14 14 14 14 13 13 13 13 13 13 13 12 13 13 13 13 13 13 12 12 12 12 12 12 12 12 12 12 12 13 13 13 13 13 13 12 12 12 12 12 13 13
14 14 14 14 13 13 13 13 13 13 13 12 12 12 12 12 12 13 13 12 12 12 12 12 12 12 12 12 12 12 12 12 12 12 12 12 12 12 12 12 12 12 12
14 14 14 13 13 13 13 13 13 13 12 12 12 12 12 12 12 12 12 12 12 12 12 12 11 11 11 11 11 12 12 12 12 12 12 12 12 12 12 12 12 12 12
13 13 13 13 13 13 12 12 12 12 12 12 12 12 12 11 11 11 11 12 11 11 11 11 11 11 11 11 11 12 12 12 12 12 12 12 12 12 12 12 12 12 12
13 13 13 13 13 13 12 12 12 12 12 12 12 11 11 11 11 11 11 11 11 12 12 11 11 11 11 11 11 11 11 11 11 11 11 11 11 11 11 11 11 11 11
13 13 13 12 12 12 12 12 12 12 11 11 11 11 11 11 11 11 11 11 11 11 12 11 11 11 11 11 11 11 11 11 11 11 11 11 11 11 11 11 11 11 11
12 12 12 12 12 12 12 12 11 11 11 11 11 11 11 11 11 11 11 10 10 10 11 11 10 10 10 10 11 11 11 11 11 11 11 11 11 11 11 11 11 11 11
12 12 12 12 12 12 11 11 11 11 11 11 10 10 10 11 10 10 10 10 10 10 10 10 10 10 10 10 10 10 10 10 10 11 11 11 11 11 11 11 11 11 11
12 11 11 11 11 11 11 11 11 11 10 10 10 10 10 10 10 10 10 10 10 10 10 10 10 10 10 10 10 10 10 10 10 10 11 11 10 10 10 11 10 11 11
11 11 11 11 11 11 11 11 10 10 10 10 10 10 10 9 9 10 10 10 10 10 10 9 9 9 9 10 10 10 10 10 10 10 10 10 10 10 10 10 10 10 10
11 11 11 10 10 10 10 10 10 10 10 10 9 9 9 9 9 9 9 9 9 9 9 9 9 9 9 9 9 9 9 10 10 10 10 10 10 10 10 10 10 10 10
11 10 10 10 10 10 10 10 9 9 9 9 9 9 9 9 9 9 9 9 9 9 9 9 9 9 9 9 9 9 9 9 9 9 9 10 10 9 10 10 10 10 10
10 10 10 9 9 9 9 9 9 9 9 9 9 9 9 9 9 8 9 9 8 8 8 8 8 8 8 8 8 8 8 8 8 9 9 9 9 9 9 9 9 10 10
9 9 9 9 9 9 9 9 9 8 8 8 8 8 8 8 8 8 8 8 8 8 8 8 7 8 8 8 8 8 8 8 8 8 8 8 9 9 9 9 9 9 9
9 9 8 8 8 8 9 9 8 8 8 8 8 7 7 7 7 7 7 7 7 7 7 7 7 7 7 8 8 8 7 7 7 8 8 8 8 8 8 9 9 9 9
8 8 8 8 8 8 8 8 8 7 7 7 7 7 7 7 7 7 7 7 7 7 7 7 7 7 7 7 7 7 7 7 7 7 7 7 8 8 8 8 8 8 9
8 7 7 7 7 7 7 7 7 7 7 7 7 6 6 7 7 7 6 6 6 6 6 6 6 7 7 7 7 7 7 7 6 7 7 7 7 7 7 8 8 8 8
Wind_Speed
4 4 4 4 5 5 4 4 4 6 6 7 7 7 8 8 8 8 8 12 13 13 13 13 13 12 12 11 11 11 10 10 11 11 11 10 10 10 10 10 9 9 9
4 4 4 4 4 4 4 4 5 4 5 5 6 7 7 7 8 8 8 9 12 13 14 13 13 13 12 12 11 10 10 10 10 10 10 10 10 10 9 9 9 9 9
5 4 4 4 4 4 4 4 4 4 4 4 5 6 6 7 7 8 8 7 8 11 12 13 12 12 12 11 11 11 10 10 10 10 10 9 9 9 9 8 8 8 8
5 4 4 4 5 4 3 3 3 3 3 3 4 4 5 5 6 7 7 7 7 7 9 11 11 11 11 11 10 10 9 9 9 9 9 9 8 8 8 8 8 7 7
4 4 4 4 5 4 3 3 3 3 3 3 3 3 4 4 5 5 6 7 7 7 7 8 9 10 10 9 9 9 9 8 7 7 8 8 8 8 7 8 8 8 7
4 4 3 4 4 3 3 3 3 3 3 3 3 3 3 4 4 4 5 6 6 7 7 6 6 7 8 8 8 8 8 8 6 6 6 7 7 7 7 7 7 7 7
3 3 2 3 3 3 3 4 3 3 3 3 2 2 2 3 4 3 4 4 5 6 5 5 4 5 5 6 6 7 7 7 6 6 6 6 6 6 6 6 6 6 6
3 2 2 2 2 2 3 3 3 2 2 2 2 1 1 1 2 2 2 3 3 3 4 4 5 5 4 4 7 6 6 6 5 5 5 5 6 6 6 6 6 6 5
2 2 2 2 2 2 2 2 2 2 2 2 2 2 2 2 2 1 1 1 2 2 2 3 3 4 4 4 4 5 5 4 4 3 3 3 4 5 5 5 5 5 4
2 2 2 1 1 1 1 1 1 1 1 1 1 2 2 2 2 1 0 1 1 1 1 1 2 3 3 3 4 7 6 5 3 2 2 2 2 3 3 3 4 5 4
1 2 2 1 0 0 1 1 1 0 0 1 1 1 1 1 2 2 2 2 1 1 1 1 1 1 2 2 2 5 5 5 4 2 1 1 1 1 2 2 3 4 4
1 1 1 1 1 1 1 1 1 1 1 1 1 1 1 1 2 2 2 2 2 2 1 1 1 1 1 1 2 4 3 3 3 3 2 2 2 1 1 2 3 3 2
0 1 1 1 1 1 1 1 1 1 1 1 1 1 1 2 2 2 3 3 3 2 1 1 1 1 1 1 1 2 1 2 2 2 2 2 2 1 1 1 2 2 1
1 1 1 1 1 1 1 1 2 2 2 2 2 2 2 2 2 2 3 3 3 3 2 2 1 0 1 2 1 3 1 1 1 2 1 1 1 1 1 1 1 1 1
2 2 2 2 2 2 2 2 2 2 2 3 3 3 3 2 2 2 2 3 3 4 3 2 1 1 2 2 2 3 2 1 2 2 2 2 2 1 1 2 2 2 2
2 2 2 2 2 2 2 3 3 3 3 3 3 4 3 3 3 3 3 3 4 4 4 3 3 3 2 2 3 4 3 2 4 3 3 3 3 2 2 2 2 3 2
2 3 3 2 3 3 3 3 3 3 4 4 4 4 4 3 3 3 3 3 4 4 5 4 4 3 3 3 2 3 3 4 3 4 4 4 4 4 3 3 4 4 3
3 3 3 3 3 3 3 3 3 3 4 4 4 4 4 3 4 4 3 4 4 4 4 5 4 3 4 3 3 3 3 3 3 3 4 5 5 5 5 4 4 5 5
3 2 2 2 2 3 3 4 4 4 4 4 4 5 4 4 4 3 4 4 4 4 4 5 5 3 3 3 3 3 3 3 3 2 3 5 6 6 6 6 5 5 5
3 3 3 3 3 3 3 3 4 4 4 4 4 4 4 4 4 4 4 5 4 4 4 4 4 4 3 3 3 3 4 3 3 3 3 4 4 6 7 7 5 5 5
3 3 3 3 3 3 3 4 4 4 4 4 4 4 4 4 4 4 4 4 4 4 4 4 4 4 4 3 4 4 4 4 4 3 3 3 4 4 5 6 6 6 6
3 3 3 3 3 3 3 4 5 5 5 5 4 4 4 4 3 4 5 6 5 5 5 5 5 5 6 5 4 5 4 5 4 3 4 4 4 4 4 4 4 5 6
3 3 4 4 4 3 1 3 5 6 5 5 4 4 4 3 4 5 5 6 6 6 6 7 7 7 6 6 6 6 6 6 6 4 4 5 4 5 4 3 4 5 6
3 4 4 4 4 3 2 3 4 6 5 5 5 5 4 4 4 5 5 6 6 6 6 6 7 8 7 6 6 7 7 7 6 4 4 5 5 5 4 4 4 5 6
4 4 4 4 4 4 1 3 5 5 5 5 5 4 5 5 3 4 6 6 6 5 5 6 7 8 8 7 5 5 5 5 5 5 4 5 5 5 5 5 4 5 6
4 4 4 4 5 4 1 2 5 4 5 5 5 5 3 4 4 4 6 6 6 6 5 5 6 6 7 6 6 7 6 5 5 5 4 4 4 3 4 4 4 4 5
Wind_Direction
54 56 60 55 51 52 60 57 53 54 54 56 56 55 53 52 52 56 63 56 53 58 65 69 71 72 73 74 74 74 72 70 68 68 70 71 72 71 70 68 68 68 70
53 50 55 54 51 48 50 55 58 55 54 55 55 54 50 52 53 58 63 67 61 61 63 66 69 70 71 70 70 72 72 70 67 67 67 67 70 71 72 70 69 68 68
54 52 44 47 46 47 57 54 60 56 56 57 56 53 50 48 51 56 59 59 64 67 66 63 66 69 70 70 69 68 71 70 69 67 65 65 68 70 70 70 68 67 66
50 52 46 44 42 43 47 52 52 54 55 52 53 52 54 52 52 56 59 60 57 59 72 65 60 63 66 66 67 68 70 69 69 67 66 66 67 68 68 67 65 64 66
50 55 47 46 48 44 43 43 49 49 51 47 50 50 51 53 54 56 57 57 58 57 65 72 64 59 60 61 62 63 63 65 68 69 67 65 65 67 68 67 66 63 67
49 59 56 52 55 58 51 45 49 52 49 42 53 56 55 56 58 54 53 57 56 56 58 61 63 66 63 57 57 60 60 58 63 69 68 66 67 66 68 68 65 63 67
56 58 52 55 51 57 56 53 57 61 54 36 48 60 78 68 55 61 53 49 55 55 58 57 52 51 62 61 57 57 56 57 58 64 67 67 67 64 62 64 64 63 66
51 44 37 51 56 57 60 61 63 44 53 37 6 351 26 120 67 69 56 46 45 53 48 46 44 44 40 49 57 53 50 50 55 63 69 73 69 63 59 58 57 58 61
46 33 22 32 45 53 58 58 56 45 32 39 18 355 341 359 359 91 57 57 39 33 37 36 34 39 36 37 44 53 41 35 45 57 67 76 79 68 59 51 48 48 53
41 26 16 28 47 47 54 48 51 48 34 23 24 356 352 354 315 314 210 37 6 355 3 9 14 24 27 33 35 38 32 19 12 30 54 74 91 76 60 48 45 44 46
40 24 4 6 2 4 3 9 354 345 16 357 360 350 345 331 314 300 298 314 315 308 323 325 338 356 8 19 16 30 20 12 8 342 335 19 51 76 66 54 50 47 42
51 28 352 343 322 323 306 296 279 268 283 305 320 340 334 318 320 300 288 294 302 305 290 294 289 315 310 334 4 23 3 1 4 360 326 330 341 344 32 53 44 37 40
268 304 301 317 317 309 304 279 253 260 259 265 285 297 298 303 307 303 295 300 300 293 269 255 287 305 308 307 330 344 344 7 358 356 0 355 353 7 20 29 25 19 32
276 276 248 270 284 274 270 270 272 266 273 267 277 283 285 289 289 291 289 294 288 280 264 288 300 283 321 302 336 281 234 167 312 306 303 313 311 295 335 337 328 338 337
287 290 266 257 262 254 256 258 267 272 274 277 283 280 275 281 277 272 272 270 271 278 279 279 287 292 301 304 303 276 268 192 234 250 252 250 252 255 291 299 292 285 274
288 284 278 268 271 262 252 254 266 275 270 264 272 278 280 275 272 263 259 264 265 266 273 285 293 286 294 292 292 284 278 210 212 218 232 238 237 234 252 273 282 283 270
267 269 273 273 267 259 253 251 261 265 266 266 264 270 272 274 270 263 259 262 266 263 270 285 288 287 283 290 289 286 284 260 235 208 226 237 234 239 246 258 267 266 256
258 261 268 269 275 269 263 258 259 262 263 266 271 273 276 275 268 267 263 262 264 265 266 281 287 284 280 288 287 281 276 270 268 218 225 233 237 243 244 243 253 252 242
256 258 271 273 278 284 278 273 264 263 262 266 270 273 276 277 273 278 269 268 268 270 267 266 279 285 277 285 286 282 278 282 277 257 238 236 236 241 240 234 242 247 234
253 258 267 268 276 281 278 280 272 265 265 267 269 270 271 269 274 279 274 272 272 270 271 267 272 273 278 280 274 279 279 275 273 260 270 261 240 233 232 229 232 239 232
251 256 259 267 279 282 300 297 280 269 264 267 268 269 270 276 286 282 282 280 275 270 273 273 270 273 274 274 272 273 277 280 273 261 272 262 246 240 231 226 226 233 233
248 254 258 266 274 284 337 320 293 274 270 265 268 271 270 268 274 266 268 271 270 264 269 273 268 268 269 270 275 274 277 275 273 266 271 271 255 255 248 240 222 223 231
253 256 262 263 267 281 323 295 290 275 272 268 269 272 275 280 280 277 266 251 249 253 259 269 276 277 278 276 273 270 267 264 270 277 273 268 260 258 257 252 205 209 229
259 258 263 264 269 276 283 281 285 264 265 266 267 269 272 278 288 292 283 274 270 263 258 261 270 280 287 288 276 269 271 273 276 265 256 264 264 264 262 244 217 216 224
266 262 261 263 268 271 279 285 285 268 265 265 266 271 275 276 305 301 279 273 274 274 257 254 269 275 284 284 277 273 264 261 268 264 251 259 264 270 263 248 226 215 228
270 275 274 272 270 274 289 280 278 272 273 272 269 266 266 281 297 288 276 274 275 281 285 277 274 271 267 256 235 249 254 254 264 267 253 254 259 267 263 253 242 236 239
Height
1536 1536 1535 1534 1534 1534 1533 1532 1532 1531 1530 1529 1529 1528 1527 1525 1524 1522 1520 1519 1517 1516 1514 1513 1513 1514 1515 1515 1515 1516 1516 1516 1516 1516 1517 1517 1517 1517 1517 1517 1517 1518 1517
1538 1537 1537 1536 1535 1535 1535 1534 1533 1532 1531 1530 1530 1529 1528 1527 1526 1524 1522 1521 1519 1518 1518 1517 1516 1516 1516 1517 1517 1517 1517 1517 1517 1517 1518 1518 1518 1518 1518 1518 1518 1518 1518
1539 1538 1538 1537 1536 1536 1536 1535 1534 1533 1532 1532 1531 1530 1529 1528 1527 1526 1524 1523 1522 1521 1520 1520 1519 1519 1519 1519 1518 1518 1518 1518 1518 1518 1518 1519 1519 1519 1519 1519 1519 1519 1519
1540 1539 1538 1538 1537 1537 1536 1535 1535 1534 1533 1533 1532 1531 1530 1529 1528 1527 1526 1525 1524 1523 1522 1522 1521 1521 1521 1520 1520 1520 1519 1519 1519 1519 1519 1519 1519 1519 1519 1519 1519 1519 1519
1540 1540 1539 1538 1538 1537 1537 1536 1535 1535 1534 1533 1532 1532 1531 1530 1529 1529 1528 1527 1525 1524 1524 1523 1522 1522 1522 1521 1521 1521 1520 1520 1520 1520 1520 1520 1520 1520 1520 1520 1520 1519 1519
1541 1540 1539 1539 1538 1538 1537 1537 1536 1535 1534 1534 1533 1533 1532 1531 1530 1530 1529 1528 1527 1526 1525 1524 1523 1523 1522 1522 1522 1521 1521 1520 1520 1520 1520 1520 1520 1520 1520 1520 1520 1520 1519
1541 1540 1540 1539 1539 1538 1538 1537 1536 1535 1535 1534 1534 1533 1533 1532 1531 1530 1530 1529 1529 1527 1526 1526 1525 1523 1523 1522 1522 1521 1521 1521 1520 1520 1520 1520 1520 1520 1520 1520 1520 1520 1519
1541 1541 1540 1540 1539 1538 1538 1537 1536 1535 1535 1534 1535 1534 1534 1534 1532 1531 1531 1530 1530 1528 1527 1526 1525 1524 1523 1522 1522 1521 1521 1521 1521 1520 1520 1520 1520 1520 1520 1520 1519 1519 1519
1541 1540 1540 1539 1539 1538 1537 1537 1536 1535 1535 1535 1534 1535 1534 1533 1533 1533 1531 1530 1530 1529 1528 1527 1526 1525 1524 1523 1522 1521 1521 1521 1520 1520 1520 1520 1520 1520 1520 1519 1519 1519 1518
1540 1540 1539 1539 1538 1537 1537 1536 1536 1535 1535 1534 1534 1534 1535 1534 1534 1532 1532 1531 1530 1529 1528 1527 1526 1525 1524 1523 1522 1521 1520 1520 1520 1520 1520 1519 1519 1519 1519 1519 1518 1518 1518
1540 1539 1538 1538 1537 1537 1536 1536 1535 1535 1534 1534 1534 1533 1533 1532 1532 1532 1531 1531 1530 1529 1528 1527 1526 1525 1524 1523 1522 1521 1520 1520 1520 1519 1519 1519 1519 1518 1518 1518 1517 1517 1517
1539 1538 1537 1537 1536 1536 1535 1535 1534 1534 1533 1533 1533 1532 1532 1532 1531 1531 1530 1529 1529 1528 1527 1526 1525 1525 1523 1522 1521 1520 1520 1519 1519 1518 1518 1518 1518 1517 1517 1516 1516 1516 1516
1537 1536 1536 1535 1535 1534 1534 1533 1533 1533 1532 1532 1532 1531 1531 1530 1530 1530 1529 1528 1527 1527 1526 1525 1524 1523 1522 1521 1520 1519 1519 1518 1518 1517 1517 1517 1517 1516 1516 1515 1515 1515 1515
1535 1535 1534 1534 1533 1533 1533 1532 1532 1531 1531 1531 1530 1530 1529 1529 1528 1528 1527 1527 1526 1526 1525 1525 1523 1522 1521 1521 1520 1518 1518 1517 1517 1516 1516 1516 1516 1516 1515 1515 1514 1514 1514
1533 1533 1532 1532 1531 1531 1531 1530 1530 1530 1529 1529 1529 1528 1528 1527 1526 1526 1525 1525 1526 1524 1523 1523 1522 1521 1520 1519 1518 1517 1516 1515 1515 1515 1515 1515 1515 1514 1514 1513 1513 1513 1513
1530 1530 1530 1529 1529 1528 1528 1528 1527 1527 1527 1527 1526 1526 1526 1525 1524 1524 1523 1523 1523 1523 1522 1521 1520 1519 1518 1517 1516 1516 1515 1514 1513 1513 1513 1513 1513 1512 1512 1512 1512 1511 1511
1527 1526 1526 1526 1526 1526 1525 1525 1524 1524 1524 1524 1524 1524 1523 1523 1522 1522 1521 1521 1520 1520 1520 1519 1518 1517 1516 1515 1514 1514 1513 1512 1512 1511 1511 1511 1511 1510 1510 1510 1510 1509 1509
1524 1524 1523 1523 1523 1522 1522 1522 1521 1521 1521 1521 1521 1521 1520 1520 1519 1519 1518 1518 1518 1518 1517 1516 1515 1514 1514 1513 1512 1511 1511 1510 1510 1509 1509 1508 1508 1508 1508 1507 1508 1507 1507
1521 1521 1520 1520 1519 1519 1519 1518 1518 1518 1518 1518 1517 1517 1517 1516 1516 1516 1515 1515 1515 1515 1514 1514 1513 1512 1511 1510 1509 1509 1509 1508 1507 1507 1506 1506 1505 1505 1505 1505 1505 1504 1504
1518 1518 1517 1517 1516 1516 1515 1515 1514 1515 1515 1514 1514 1514 1513 1513 1512 1512 1512 1512 1512 1511 1511 1511 1510 1509 1508 1507 1507 1506 1506 1505 1505 1504 1503 1503 1503 1502 1502 1502 1502 1501 1501
1515 1515 1514 1514 1513 1513 1512 1512 1511 1511 1511 1511 1511 1510 1509 1509 1508 1508 1508 1508 1508 1508 1508 1507 1507 1506 1505 1504 1504 1503 1503 1502 1502 1502 1501 1500 1499 1499 1499 1498 1498 1498 1498
1512 1511 1511 1510 1510 1509 1509 1508 1508 1508 1508 1507 1507 1506 1506 1505 1505 1504 1504 1504 1504 1504 1504 1504 1503 1503 1502 1501 1501 1500 1500 1499 1498 1499 1497 1497 1496 1496 1495 1495 1494 1494 1494
1508 1507 1507 1507 1506 1506 1505 1505 1504 1504 1504 1504 1503 1503 1502 1502 1501 1501 1500 1500 1500 1500 1500 1500 1499 1499 1499 1498 1497 1497 1496 1496 1495 1495 1494 1493 1493 1492 1492 1491 1491 1490 1490
1505 1504 1504 1503 1503 1502 1502 1501 1501 1500 1500 1500 1500 1499 1499 1498 1497 1497 1496 1496 1496 1496 1495 1495 1495 1494 1494 1494 1493 1493 1492 1492 1492 1491 1490 1490 1489 1488 1488 1487 1487 1486 1486
1501 1500 1500 1499 1499 1498 1498 1497 1497 1497 1497 1496 1496 1495 1495 1494 1493 1493 1492 1492 1492 1491 1491 1490 1490 1489 1489 1489 1489 1489 1488 1488 1487 1486 1486 1486 1485 1484 1484 1483 1483 1482 1482
1497 1497 1496 1496 1495 1495 1494 1493 1493 1493 1493 1492 1492 1491 1490 1489 1489 1488 1488 1488 1487 1487 1486 1485 1485 1484 1484 1484 1484 1484 1484 1484 1483 1482 1482 1482 1481 1481 1480 1479 1479 1478 1478